User: anonymous   Login
Location: Ostrava
(49.8330°N, 18.2830°E)
Time: 20:52:05
(UTC+01:00)
Language:

Explorer 7 - Orbit

View from above orbital plane
View from above orbital plane
View from above satellite
View from above satellite

Ground track
Ground track

The orbit data is extracted from the following two-line orbital elements,

1 00022U 59009A   14326.85244215  .00006295  00000-0  53770-3 0   879
2 00022 050.2845 265.3093 0152251 064.2897 297.3679 14.90305160921307
Epoch (UTC): 22 November 2014 20:27:31
Eccentricity: 0.0152251
inclination: 50.2845°
perigee height: 491 km
apogee height: 703 km
right ascension of ascending node: 265.3093°
argument of perigee: 64.2897°
revolutions per day: 14.90305160
mean anomaly at epoch: 297.3679°
orbit number at epoch: 92130

The dashed part of the orbit path shows where the satellite is in the earth's shadow,  

DLR